Location: Rio Negrinho
(26.2394°S, 49.4999°W)
Time: 01:47:52
(UTC+00:00)

SEDSat Delta rocket - Pass Details

Date: 09 October 2020
Orbit: 533 x 1000 km, 31.4° (Epoch: 20 October)

Event Time Altitude Azimuth Distance (km) Brightness Sun altitude
Rises 23:07:16 0° 255° (WSW) 3,539 8.4 -23.6°
Reaches altitude 10° 23:10:05 10° 250° (WSW) 2,529 7.3 -24.2°
Maximum altitude 23:15:59 54° 173° (S) 957 4.0 -25.5°
Enters shadow 23:16:48 50° 141° (SE) 995 3.9 -25.6°
